DW7733 Weather Reports


Display with metric or nautical units.
time (UTC)temp
F
wind
direction
speed
MPH
gust
MPH
rain 1hr
in
rain 24hr
in
rain mn
in
humidity
%
barometer
mb
20260903183101 72 352 3.0 5.0 0.00 0.22 0.01 92 1012.8
20260903181601 72 277 1.0 3.0 0.00 0.22 0.01 92 1012.8
20260903180100 72 274 4.0 7.0 0.00 0.22 0.01 92 1013.5
20260903174559 72 271 4.0 5.0 0.00 0.22 0.01 92 1013.4
20260903173055 72 267 4.0 6.0 0.00 0.22 0.01 90 1013.2
20260903171553 72 260 7.0 8.0 0.00 0.22 0.01 80 1013.5
20260903170050 71 264 4.0 6.0 0.00 0.22 0.01 75 1013.2
20260903164549 71 259 5.0 7.0 0.00 0.22 0.01 75 1013.4
20260903163047 71 255 7.0 8.0 0.00 0.22 0.01 78 1013.6
20260903161545 71 257 3.0 5.0 0.00 0.22 0.01 72 1013.4
20260903160044 71 269 3.0 4.0 0.00 0.22 0.01 70 1013.7
20260903154601 71 314 2.0 3.0 0.00 0.22 0.01 70 1013.2
20260903153040 71 309 1.0 2.0 0.00 0.22 0.01 70 1013.1
20260903151540 70 314 1.0 2.0 0.00 0.22 0.01 71 1012.9
20260903150039 70 311 1.0 2.0 0.00 0.22 0.01 71 1012.9
20260903144537 70 305 0.0 1.0 0.00 0.22 0.01 71 1013.0
20260903143044 69 304 1.0 2.0 0.00 0.22 0.01 72 1013.1
20260903141541 69 273 0.0 1.0 0.00 0.22 0.01 72 1013.0
20260903140033 69 248 0.0 0.0 0.00 0.22 0.01 72 1012.9
20260903134532 69 248 0.0 1.0 0.00 0.22 0.01 72 1013.0
20260903133034 69 250 0.0 1.0 0.00 0.22 0.01 72 1013.1
20260903131529 69 222 0.0 0.0 0.00 0.22 0.01 72 1013.0
20260903130035 68 204 0.0 0.0 0.00 0.22 0.01 72 1013.2
20260903124526 67 136 0.0 1.0 0.00 0.22 0.01 73 1013.2
20260903123032 67 142 0.0 2.0 0.00 0.22 0.01 73 1013.2
20260903121523 66 128 0.0 2.0 0.00 0.22 0.01 73 1013.1
20260903120023 66 145 0.0 1.0 0.00 0.22 0.01 73 1013.0
20260903114522 66 135 0.0 2.0 0.00 0.22 0.01 73 1013.0
20260903113027 65 135 0.0 1.0 0.00 0.22 0.01 73 1012.9
20260903111528 65 140 0.0 2.0 0.00 0.22 0.01 73 1012.8
20260903110017 65 139 0.0 3.0 0.00 0.22 0.01 73 1012.7
20260903104513 65 139 1.0 2.0 0.01 0.22 0.01 73 1012.4
20260903103011 66 138 1.0 2.0 0.01 0.22 0.01 73 1012.4
20260903101509 66 142 1.0 2.0 0.01 0.22 0.01 73 1012.2
20260903100008 66 138 0.0 2.0 0.01 0.22 0.01 72 1012.2
20260903094505 66 141 1.0 2.0 0.00 0.21 0.00 72 1012.0
20260903093004 66 141 1.0 3.0 0.00 0.21 0.00 72 1012.0
20260903091504 66 139 0.0 3.0 0.00 0.21 0.00 72 1011.8
20260903090003 66 134 1.0 2.0 0.00 0.21 0.00 72 1011.8
20260903084503 66 139 1.0 2.0 0.00 0.21 0.00 72 1011.8
20260903083002 67 138 0.0 0.0 0.00 0.21 0.00 72 1011.6
20260903081602 67 138 0.0 1.0 0.00 0.21 0.00 72 1011.6
20260903080100 66 138 0.0 2.0 0.00 0.21 0.00 72 1011.8
20260903074559 67 139 1.0 2.0 0.00 0.21 0.00 72 1011.7
20260903073059 67 139 1.0 2.0 0.00 0.21 0.00 71 1011.6
20260903071559 67 139 0.0 2.0 0.00 0.21 0.00 71 1011.4
20260903070059 67 141 0.0 1.0 0.00 0.21 0.00 71 1011.4
20260903064555 67 142 0.0 1.0 0.00 0.21 0.00 71 1011.6
20260903063115 67 153 0.0 2.0 0.00 0.21 0.00 71 1011.5
20260903061554 68 153 0.0 2.0 0.00 0.21 0.00 70 1011.8
20260903060057 68 155 0.0 1.0 0.00 0.21 0.00 70 1012.0
20260903054552 68 162 0.0 1.0 0.00 0.21 0.00 70 1012.1
20260903053051 68 228 0.0 3.0 0.00 0.21 0.00 70 1012.1
20260903051549 67 140 0.0 2.0 0.00 0.21 0.00 70 1011.9
20260903050107 67 140 1.0 2.0 0.00 0.21 0.00 69 1011.5
20260903044546 67 132 0.0 2.0 0.00 0.21 0.00 69 1011.7
20260903043044 68 132 1.0 2.0 0.00 0.21 0.00 69 1011.4
20260903041541 68 133 1.0 2.0 0.00 0.21 0.00 69 1010.9
20260903040038 68 132 1.0 2.0 0.00 0.21 0.00 69 1011.0
20260903034537 68 134 1.0 2.0 0.00 0.21 0.21 69 1010.9
20260903033039 68 135 1.0 2.0 0.00 0.21 0.21 68 1010.8
20260903031635 68 139 1.0 2.0 0.00 0.21 0.21 68 1010.3
20260903030036 68 138 0.0 2.0 0.00 0.21 0.21 68 1010.3
20260903024536 68 146 1.0 2.0 0.01 0.21 0.21 68 1010.9
20260903023041 68 144 0.0 2.0 0.01 0.21 0.21 68 1011.2
20260903021534 68 139 2.0 3.0 0.01 0.21 0.21 67 1011.2
20260903020033 68 132 0.0 3.0 0.01 0.21 0.21 67 1011.3
20260903014533 68 147 0.0 4.0 0.01 0.20 0.20 67 1011.8
20260903013033 68 165 0.0 2.0 0.10 0.20 0.20 67 1012.0
20260903011545 68 142 0.0 3.0 0.10 0.20 0.20 67 1011.1
20260903010032 68 140 1.0 3.0 0.10 0.20 0.20 66 1011.5
20260903004530 69 116 0.0 3.0 0.09 0.19 0.19 66 1011.0
20260903003030 68 65 0.0 2.0 0.00 0.10 0.10 66 1011.3
20260903001532 68 135 1.0 3.0 0.01 0.10 0.10 66 1010.7
20260903000028 68 137 0.0 2.0 0.01 0.10 0.10 66 1010.9
20260902234536 68 245 0.0 5.0 0.02 0.10 0.10 66 1010.9
20260902233028 68 236 0.0 3.0 0.03 0.10 0.10 66 1011.4
20260902231538 68 142 0.0 3.0 0.02 0.09 0.09 66 1010.7
20260902230032 68 290 2.0 7.0 0.02 0.09 0.09 67 1011.2
20260902224525 68 295 0.0 1.0 0.00 0.07 0.07 66 1011.5
20260902223026 69 146 0.0 0.0 0.00 0.07 0.07 65 1011.1
20260902221524 69 146 0.0 0.0 0.00 0.07 0.07 66 1010.4
20260902220023 68 133 0.0 5.0 0.07 0.07 0.07 67 1010.5
20260902214522 67 19 4.0 8.0 0.07 0.07 0.07 71 1011.1
20260902213020 67 20 5.0 14.0 0.07 0.07 0.07 74 1011.5
20260902211526 67 332 16.0 23.0 0.07 0.07 0.07 74 1010.4
20260902210017 68 352 26.0 38.0 0.00 0.00 0.00 92 1012.2
20260902204513 82 22 5.0 6.0 0.00 0.00 0.00 81 1010.9
20260902203014 85 278 0.0 1.0 0.00 0.00 0.00 74 1009.6
20260902201507 82 44 0.0 4.0 0.00 0.00 0.00 79 1010.1
20260902200007 81 44 4.0 6.0 0.00 0.00 0.00 81 1010.1
20260902194507 82 42 9.0 12.0 0.00 0.00 0.00 83 1010.4
20260902193003 83 245 0.0 2.0 0.00 0.00 0.00 78 1010.6
20260902191500 84 280 0.0 1.0 0.00 0.00 0.00 78 1010.7
20260902190059 84 256 1.0 3.0 0.00 0.00 0.00 78 1010.8
20260902184601 83 264 0.0 4.0 0.00 0.00 0.00 81 1010.9